Malmstrom AFB, MT

11:22 AM MST on January 19, 2018 (GMT -0700)
Malmstrom AFB

Weather History for KGFA - May, 2013

Change the Weather History Date:

Friday, May 3, 2013

  Actual Average (KGTF) Record (KGTF)
Temperature  
Mean Temperature 42 °F -  
Max Temperature 48 °F 64 °F 86 °F (1918)
Min Temperature 37 °F 37 °F 19 °F (1967)
Degree Days  
Heating Degree Days 22    
Moisture  
Dew Point 37 °F    
Average Humidity 75    
Maximum Humidity 93    
Minimum Humidity 36    
Precipitation  
Precipitation 0.36 in - - ()
Sea Level Pressure  
Sea Level Pressure 30.29 in    
Wind  
Wind Speed 7 mph (WNW)    
Max Wind Speed 16 mph    
Max Gust Speed 22 mph    
Visibility 9 miles    
Events Rain    
Averages and records for this station are not official NWS values.
T = Trace of Precipitation, MM = Missing Value Source: NWS Daily Summary

Daily Weather History Graph

Daily Weather History Graph

Search for Another Location

Airport or City:

Trip Planner

Search our weather history database for the weather conditions in past years. The results will help you decide how hot, cold, wet, or windy it might be!

Date:

Astronomy

May. 03, 2013 Rise Set
Actual Time 6:04 AM MDT 8:39 PM MDT
Civil Twilight 5:29 AM MDT 9:14 PM MDT
Nautical Twilight 4:45 AM MDT 9:58 PM MDT
Astronomical Twilight 3:55 AM MDT 10:49 PM MDT
Moon 2:57 AM MDT (5/3) 2:13 PM MDT (5/3)
Length of Visible Light 15h 45m
Length of Day
14h 35m
Last Quarter, 36% of the Moon is Illuminated
May 3
Last Quarter
May 9
New
May 17
First Quarter
May 24
Full
May 31
Last Quarter

Hourly Weather History & Observations

Time (MDT) Temp. Windchill Dew Point Humidity Pressure Visibility Wind Dir Wind Speed Gust Speed Precip Events Conditions
12:56 AM 42.1 °F 38.4 °F 18.0 °F 38% 30.29 in 10.0 mi SSE 5.8 mph - N/A   Clear
1:56 AM 45.0 °F 43.5 °F 19.0 °F 36% 30.26 in 10.0 mi South 3.5 mph - N/A   Clear
2:56 AM 43.0 °F - 19.9 °F 40% 30.26 in 10.0 mi Calm Calm - N/A   Clear
3:56 AM 44.1 °F 42.5 °F 23.0 °F 43% 30.24 in 10.0 mi SSW 3.5 mph - N/A   Clear
4:56 AM 37.9 °F - 24.1 °F 57% 30.28 in 10.0 mi Calm Calm - N/A   Clear
5:56 AM 45.0 °F 40.6 °F 21.0 °F 39% 30.27 in - WSW 8.1 mph - N/A   Clear
6:56 AM 46.9 °F - 24.1 °F 41% 30.27 in 10.0 mi WSW 9.2 mph - N/A   Partly Cloudy
7:56 AM 48.9 °F - 33.1 °F 54% 30.30 in 10.0 mi NW 16.1 mph 21.9 mph N/A   Mostly Cloudy
8:56 AM 48.9 °F - 37.0 °F 64% 30.30 in 10.0 mi WNW 15.0 mph 20.7 mph N/A   Overcast
9:56 AM 48.0 °F - 37.0 °F 66% 30.32 in 10.0 mi WNW 13.8 mph 19.6 mph N/A   Overcast
10:56 AM 48.0 °F - 37.9 °F 68% 30.33 in 10.0 mi NW 11.5 mph 19.6 mph 0.00 in Rain Light Rain
11:56 AM 46.9 °F - 37.9 °F 71% 30.35 in 10.0 mi WNW 13.8 mph - 0.00 in   Overcast
12:56 PM 46.0 °F 39.3 °F 39.9 °F 79% 30.36 in 10.0 mi WNW 16.1 mph 21.9 mph 0.00 in Rain Light Rain
1:56 PM 46.9 °F - 39.9 °F 77% 30.34 in - WNW 12.7 mph - 0.01 in Rain Light Rain
2:13 PM 46.4 °F 41.1 °F 39.2 °F 76% 30.22 in - West 11.5 mph - 0.00 in   Overcast
2:56 PM 46.9 °F - 39.9 °F 77% 30.35 in 10.0 mi West 12.7 mph - 0.00 in Rain Light Rain
3:40 PM 46.4 °F 41.5 °F 42.8 °F 87% 30.21 in - West 10.4 mph - 0.01 in Rain Light Rain
3:56 PM 46.9 °F - 43.0 °F 86% 30.33 in 10.0 mi West 9.2 mph - 0.03 in Rain Light Rain
4:36 PM 46.4 °F 41.9 °F 41.0 °F 81% 30.20 in 10.0 mi West 9.2 mph - 0.05 in Rain Light Rain
4:56 PM 46.9 °F - 42.1 °F 83% 30.34 in 10.0 mi West 8.1 mph - 0.06 in Rain Light Rain
5:41 PM 46.4 °F 42.9 °F 42.8 °F 87% 30.21 in 3.0 mi NNW 6.9 mph - 0.04 in Rain Light Rain
5:56 PM 46.9 °F - 43.0 °F 86% 30.34 in 7.0 mi WNW 3.5 mph - 0.05 in Rain Light Rain
6:37 PM 46.4 °F 43.5 °F 42.8 °F 87% 30.22 in 3.0 mi WNW 5.8 mph - 0.05 in Rain Rain
6:45 PM 46.4 °F 41.5 °F 42.8 °F 87% 30.22 in 2.5 mi NW 10.4 mph - 0.08 in Rain Rain
6:56 PM 46.0 °F 41.0 °F 43.0 °F 89% 30.34 in 3.0 mi NW 10.4 mph - 0.10 in Rain Light Rain
7:42 PM 46.4 °F 41.5 °F 41.0 °F 81% 30.22 in 10.0 mi NNW 10.4 mph - 0.01 in Rain Light Rain
7:56 PM 45.0 °F 40.6 °F 41.0 °F 86% 30.35 in 8.0 mi NNW 8.1 mph - 0.02 in Rain Light Rain
8:07 PM 44.6 °F 40.7 °F 41.0 °F 87% 30.23 in 7.0 mi NNW 6.9 mph - 0.01 in Rain Light Rain
8:42 PM 44.6 °F 40.7 °F 42.8 °F 93% 30.24 in 10.0 mi NNW 6.9 mph - 0.04 in Rain Light Rain
8:56 PM 45.0 °F 41.2 °F 42.1 °F 90% 30.36 in 10.0 mi North 6.9 mph - 0.05 in Rain Light Rain
9:27 PM 44.6 °F 41.4 °F 42.8 °F 93% 30.25 in 8.0 mi North 5.8 mph - 0.02 in Rain Light Rain
9:42 PM 44.6 °F 43.1 °F 42.8 °F 93% 30.25 in 10.0 mi North 3.5 mph - 0.03 in Rain Light Rain
9:54 PM 44.6 °F 43.1 °F 42.8 °F 93% 30.25 in 10.0 mi North 3.5 mph - 0.03 in Rain Light Rain
9:56 PM 45.0 °F - 43.0 °F 93% 30.38 in 10.0 mi Calm Calm - 0.03 in Rain Light Rain
10:36 PM 44.6 °F - 42.8 °F 93% 30.26 in 10.0 mi Calm Calm - 0.00 in   Overcast
10:56 PM 45.0 °F - 42.1 °F 90% 30.38 in 10.0 mi Calm Calm - 0.00 in   Overcast
11:56 PM 45.0 °F 43.5 °F 43.0 °F 93% 30.38 in 8.0 mi SW 3.5 mph - 0.01 in   Overcast